www.pogodaiklimat.ru

Погода и климат >> Архив погоды >> Чехия >> Прага


АРХИВ ПОГОДЫ в Праге

Время (UTC), дата Ветер
(напр.,м/с)
 
Видим.   Явления Облачность Т
(С)
Тd
(С)
f
(%)
Тe
(С)
Тes
(С)
Комфортность P
(гПа)
Po
(гПа)
Тmin
(С)
Tmax
(С)
R
(мм)
R24
(мм)
S
(см)
10 16.05 СЗ 1 20 км в посл. час морось 10/10 270 м
[Sc]
+6.9 +4.8 86 +6 +6 очень
холодно
1015.8 971.9
11 16.05 З 2 25 км 10/10 360 м
[Sc]
+7.7 +5.0 83 +6 +6 очень
холодно
1015.3 971.5
12 16.05 СЗ 2 30 км {морось} 10/10 400 м
[Sc]
+8.2 +5.1 81 +6 +6 очень
холодно
1015.1 971.4 0.0
13 16.05 С 1 30 км 10/10 450 м
[Sc]
+8.5 +5.0 79 +8 +8 холодно 1014.9 971.3
14 16.05 СВ 2 28 км 10/10 400 м
[Sc]
+8.9 +5.5 79 +7 +7 очень
холодно
1014.7 971.1
15 16.05 В 3 28 км 10/10 420 м
[Sc]
+8.6 +5.8 83 +6 +6 очень
холодно
1014.6 971.0
16 16.05 СВ 2 25 км 10/10 450 м
[Sc]
+8.8 +5.8 81 +7 +7 прохладно 1014.6 971.0
17 16.05 В 2 25 км 10/10 540 м
[Sc]
+8.7 +6.0 83 +7 +7 холодно 1014.4 970.8
18 16.05 В 2 20 км слаб. дождь 10/10 630 м
[Sc]
+8.4 +6.5 88 +6 +6 очень
холодно
1014.4 970.8 +9.5 0.1
19 16.05 В 1 12 км в посл. час дождь 9/8 630 м
[Sc Ac As]
+8.1 +6.1 87 +7 +7 по сезону 1014.5 970.8
20 16.05 В 2 15 км 8/6 1000 м
[Sc Ac As]
+7.6 +5.9 89 +5 +5 прохладно 1014.6 970.8
21 16.05 В 1 12 км {дождь} 4/1 1200 м
[Sc Ac As]
+6.0 +4.6 91 +5 +5 холодно 1014.6 970.6
22 16.05 В 2 9000 м дымка 9/9 750 м
[Sc]
+6.7 +5.5 92 +4 +4 по сезону 1014.4 970.5
23 16.05 СВ 2 9000 м дымка 9/9 750 м
[Sc]
+6.6 +5.6 93 +4 +4 по сезону 1014.1 970.2
00 17.05 С 1 8000 м дымка {дождь} 10/10 500 м
[Sc]
+6.5 +5.6 94 +5 +5 прохладно 1013.8 969.9 0.0
01 17.05 7000 м дымка 10/10 660 м
[Sc]
+6.6 +5.7 94 1013.2 969.3
02 17.05 В 1 7000 м дымка 10/10 480 м
[Sc]
+6.8 +6.1 95 +6 +6 по сезону 1012.8 969.0
03 17.05 нст 1 6000 м дымка 10/10 400 м
[Sc]
+6.7 +5.8 94 +6 +6 прохладно 1012.8 969.0
04 17.05 В 2 5000 м дымка 9/9 660 м
[Sc]
+7.1 +6.1 93 +5 +5 по сезону 1012.5 968.8
05 17.05 В 3 7000 м дымка 9/9 1380 м
[Sc]
+8.1 +6.4 89 +5 +5 прохладно 1012.4 968.8
06 17.05 В 2 10 км 9/9 1440 м
[Sc]
+9.3 +6.9 85 +8 +8 прохладно 1012.3 968.9 +6.0 0.0
07 17.05 ЮВ 3 12 км 9/9 360 м
[Cu Sc]
+10.7 +7.4 80 +9 +9 по сезону 1012.0 968.8
08 17.05 ЮВ 3 20 км 6/6 600 м
[Cu Sc]
+11.6 +6.9 73 +10 +13 прохладно 1011.3 968.3
09 17.05 ЮВ 3 20 км 9/9 800 м
[Sc diur, vesp]
+12.2 +6.8 70 +11 +12 прохладно 1010.9 968.0
10 17.05 В 4 25 км 9/9 840 м
[Sc diur, vesp]
+12.6 +7.3 70 +11 +12 холодно 1010.6 967.8
11 17.05 В 5 25 км 9/9 930 м
[Sc diur, vesp]
+13.3 +6.4 63 +11 +12 холодно 1010.3 967.6
12 17.05 ЮВ 3 25 км 8/8 960 м
[Sc diur, vesp Ci sp]
+14.2 +6.3 59 +13 +16 прохладно 1010.0 967.4
13 17.05 ЮВ 4 30 км 9/8 1050 м
[Sc diur, vesp Ci sp]
+15.1 +6.7 57 +14 +16 по сезону 1009.6 967.2
14 17.05 Ю 4 35 км 6/5 1200 м
[Sc diur, vesp Ci fib]
+15.9 +6.6 54 +15 +19 по сезону 1009.2 966.9
15 17.05 ЮВ 4 40 км 6/5 1200 м
[Sc diur, vesp Ci sp]
+15.3 +6.0 54 +14 +17 по сезону 1009.2 966.8
16 17.05 ЮВ 5 45 км 8/8 1200 м
[Sc diur, vesp Ci sp]
+15.1 +5.9 54 +14 +14 тепло 1008.8 966.4
17 17.05 ЮВ 3 60 км 6/5 1500 м
[Sc diur, vesp Ci fib]
+15.0 +5.6 53 +14 +15 по сезону 1008.7 966.3
18 17.05 ЮВ 3 60 км 5/3 1440 м
[Sc diur, vesp Ci]
+14.0 +6.1 59 +13 +13 по сезону 1008.6 966.0 +16.0
19 17.05 ЮВ 3 50 км 5/0
[Ac lent Ci fib]
+11.8 +6.0 68 +10 +10 тепло 1009.0 966.1
20 17.05 ЮВ 4 50 км 3/0
[Ci fib]
+10.4 +6.0 74 +8 +8 по сезону 1009.3 966.2
21 17.05 ЮВ 5 50 км 1/0
[Ci fib]
+9.9 +6.4 79 +7 +7 прохладно 1009.5 966.3
22 17.05 ЮВ 3 50 км ясно +8.5 +6.0 84 +6 +6 по сезону 1009.7 966.3
23 17.05 ЮВ 3 50 км 1/0
[Ci fib]
+7.9 +5.5 85 +5 +5 по сезону 1009.7 966.2
00 18.05 ЮВ 3 40 км 1/0
[Ci fib]
+7.7 +5.8 88 +5 +5 прохладно 1009.6 966.1
01 18.05 В 3 35 км 1/1 1500 м
[Sc Ci fib]
+7.0 +5.4 90 +4 +4 по сезону 1009.6 966.0
02 18.05 В 3 20 км 9/9 570 м
[Sc]
+7.8 +6.6 92 +5 +5 по сезону 1009.3 965.8
03 18.05 В 1 20 км 9/9 500 м
[Sc]
+8.1 +6.6 90 +7 +7 по сезону 1009.1 965.7
04 18.05 ЮВ 3 20 км 9/9 500 м
[Sc]
+8.8 +6.4 85 +6 +6 по сезону 1008.9 965.6
05 18.05 ЮВ 3 20 км 9/9 480 м
[Sc]
+9.2 +6.8 85 +7 +7 по сезону 1009.2 965.9
06 18.05 ЮВ 3 22 км 9/9 480 м
[Sc]
+10.0 +7.3 83 +8 +8 прохладно 1008.9 965.8 +6.1
07 18.05 ЮВ 2 25 км 9/9 480 м
[Sc]
+10.4 +6.9 79 +9 +10 по сезону 1009.1 966.0
08 18.05 Ю 3 28 км 9/9 570 м
[Sc]
+11.3 +7.0 75 +10 +10 прохладно 1009.2 966.2
09 18.05 ЮВ 2 30 км 8/8 630 м
[Sc]
+12.3 +7.3 72 +11 +14 прохладно 1009.1 966.3
10 18.05 ЮВ 2 35 км 5/5 750 м
[Sc diur, vesp Ci fib]
+14.4 +7.3 62 +14 +22 по сезону 1008.5 966.0
11 18.05 СВ 3 35 км 5/5 1000 м
[Sc diur, vesp]
+15.7 +7.9 60 +15 +22 по сезону 1007.9 965.6
12 18.05 ЮВ 2 35 км 6/6 1200 м
[Cu med, cong]
+17.1 +8.1 55 +17 +24 по сезону 1007.2 965.2
13 18.05 В 4 35 км 5/5 1380 м
[Sc diur, vesp]
+18.6 +7.7 49 +19 +24 тепло 1006.6 964.8
14 18.05 ЮВ 4 40 км 5/5 1500 м
[Sc diur, vesp Ci fib]
+19.7 +7.6 45 +21 +24 комфорт 1005.9 964.3
15 18.05 В 2 35 км 5/4 1500 м
[Sc diur, vesp Ci fib]
+19.3 +7.7 47 +21 +25 комфорт 1005.6 963.9
16 18.05 ЮВ 3 35 км 8/5 1500 м
[Sc diur, vesp Ac cuf Ci fib]
+19.8 +7.4 45 +21 +22 комфорт 1005.3 963.7
17 18.05 ЮВ 4 35 км 8/5 1500 м
[Sc diur, vesp Ac cuf Ci fib]
+18.3 +8.3 52 +18 +19 тепло 1005.5 963.7
18 18.05 Ю 4 35 км в посл. час ливневой дождь 8/4 1500 м
[Sc diur, vesp Ac cuf Ci fib]
+16.8 +9.0 60 +16 +16 тепло 1005.9 963.9 +20.1 0.0
19 18.05 В 3 30 км 5/0
[Ac cuf Ci fib]
+14.3 +8.7 69 +13 +13 тепло 1006.6 964.2
20 18.05 ЮВ 4 25 км 6/0
[Ac cuf Ci fib]
+14.2 +8.8 70 +13 +13 тепло 1007.1 964.7
21 18.05 ЮВ 3 20 км 5/0
[As trans]
+14.0 +8.8 71 +13 +13 по сезону 1007.1 964.6
22 18.05 ЮВ 3 15 км 4/0
[As trans Ci fib]
+12.2 +8.5 78 +11 +11 тепло 1006.9 964.2
23 18.05 В 2 15 км 3/0
[Ci fib]
+12.6 +8.4 76 +12 +12 тепло 1006.4 963.8
00 19.05 В 3 12 км 1/0
[Ci fib]
+9.5 +7.5 87 +7 +7 по сезону 1006.7 963.6
01 19.05 В 3 12 км ясно +9.1 +7.2 88 +7 +7 по сезону 1006.8 963.6
02 19.05 В 4 12 км ясно +9.6 +8.2 91 +7 +7 по сезону 1006.4 963.3
03 19.05 В 4 9000 м дымка 1/0
[Ac trans]
+9.8 +8.1 89 +7 +7 прохладно 1006.2 963.2
04 19.05 В 3 9000 м дымка 4/0
[Ci fib]
+10.1 +8.4 89 +8 +8 по сезону 1006.2 963.2
05 19.05 В 3 10 км 8/0
[Ci]
+11.9 +9.5 85 +10 +11 по сезону 1006.0 963.3
06 19.05 В 4 14 км 8/0
[Cs]
+13.3 +9.6 78 +12 +14 по сезону 1005.9 963.4 +8.6
07 19.05 В 2 18 км 8/0
[Ac lent Cs]
+15.5 +10.0 70 +15 +21 тепло 1005.5 963.3
08 19.05 В 4 22 км 9/1 700 м
[Cu hum Ac lent Cs]
+16.1 +10.4 69 +15 +19 тепло 1005.3 963.2
09 19.05 ЮВ 2 28 км 6/1 840 м
[Cu med, cong Ac lent Ci sp]
+17.2 +10.2 63 +18 +27 тепло 1004.8 962.9
10 19.05 В 4 30 км 9/1 1000 м
[Cu med, cong Ac lent Ci sp]
+18.7 +11.0 61 +19 +25 тепло 1004.3 962.7
11 19.05 В 4 30 км 8/3 1080 м
[Cu med, cong Ac lent Ci sp]
+20.4 +11.7 57 +22 +27 комфорт 1003.8 962.4
12 19.05 В 5 35 км 9/4 1300 м
[Cu med, cong Ac lent Cs]
+21.7 +10.8 50 +24 +27 комфорт 1003.2 962.0
13 19.05 В 5 35 км 8/4 1500 м
[Cu med, cong Ac lent Cs]
+21.1 +9.8 48 +22 +25 комфорт 1003.1 961.8
14 19.05 В 4 40 км 6/3 1500 м
[Cu med, cong Ac lent Ci sp]
+22.5 +8.2 40 +24 +28 комфорт 1002.5 961.4
15 19.05 В 5 45 км 4/3 1500 м
[Cu med, cong Ac lent Ci sp]
+22.3 +9.5 44 +24 +26 комфорт 1001.9 960.8
16 19.05 ЮВ 5 45 км 5/4 1500 м
[Cu med, cong Ac lent Ci fib]
+22.3 +7.3 38 +23 +24 комфорт 1001.7 960.6
17 19.05 В 5 50 км 8/3 1500 м
[Sc diur, vesp Ac lent Ci fib]
+21.3 +6.8 39 +22 +22 комфорт 1001.8 960.6
18 19.05 ЮВ 5 60 км в посл. час ливневой дождь 8/4 1500 м
[Sc diur, vesp Ac cuf Ci fib]
+20.2 +8.2 46 +21 +21 комфорт 1002.2 960.8 +22.9 0.0
19 19.05 Ю 3 60 км 8/3 1500 м
[Sc diur, vesp Ac cuf Ci fib]
+17.9 +7.3 50 +18 +18 тепло 1002.8 961.1
20 19.05 Ю 2 50 км 9/0
[Ac cuf]
+16.6 +9.5 63 +17 +17 тепло 1003.0 961.1
21 19.05 ЮВ 1 40 км 9/0
[Ac cuf]
+15.5 +9.6 68 +16 +16 тепло 1002.7 960.7
22 19.05 В 3 40 км 9/0
[Ac As]
+15.0 +10.2 73 +14 +14 тепло 1003.1 961.0
23 19.05 В 3 40 км 9/0
[Ac As]
+15.0 +10.3 73 +14 +14 тепло 1003.6 961.5
00 20.05 В 2 35 км 6/0
[Ac trans Ci sp]
+13.3 +10.0 80 +13 +13 тепло 1003.4 961.0
01 20.05 В 3 30 км 3/0
[Ac lent Ci fib]
+11.3 +9.3 87 +9 +9 тепло 1003.3 960.6
02 20.05 В 3 20 км 8/0
[Ac und Ci fib]
+11.7 +9.7 88 +10 +10 по сезону 1002.6 960.0
03 20.05 СЗ 1 15 км 9/0
[Ac As Cs]
+10.2 +9.0 92 +10 +10 по сезону 1002.9 960.1
04 20.05 20 км 9/0
[Ac As]
+10.9 +9.7 92 1002.3 959.6
05 20.05 СВ 3 20 км 9/4 1200 м
[Sc Ac As]
+12.8 +11.2 90 +11 +12 по сезону 1002.0 959.6
06 20.05 В 3 25 км 9/6 1080 м
[Sc Ac As]
+13.3 +11.4 88 +12 +13 по сезону 1001.7 959.4 +9.7
07 20.05 В 4 12 км в посл. час дождь 10/9 900 м
[Sc Ac As]
+13.8 +11.7 87 +12 +12 по сезону 1001.7 959.5
08 20.05 В 3 7000 м слаб. дождь 10/9 700 м
[Sc Ac As]
+13.5 +12.2 92 +12 +13 по сезону 1002.0 959.7
09 20.05 В 2 10 км слаб. дождь 10/6 700 м
[Sc Ac As]
+14.4 +12.4 88 +14 +16 по сезону 1001.4 959.3
10 20.05 В 1 7000 м слаб. дождь 10/10 240 м
[Sc]
+14.2 +12.6 90 +14 +14 прохладно 1001.5 959.4
11 20.05 Ю 3 2800 м дождь 10/10 150 м
[Sc]
+13.1 +12.0 93 +12 +12 холодно 1002.2 959.9
12 20.05 З 2 6000 м слаб. дождь 10/5 120 м
[Sc As op]
+12.6 +12.1 97 +12 +13 холодно 1001.9 959.5 16
13 20.05 Ю 2 20 км в посл. час дождь 9/5 150 м
[Sc Ac As]
+13.4 +12.0 91 +13 +16 по сезону 1001.8 959.5
14 20.05 Ю 2 15 км осадки на расстоянии 9/5 300 м
[Cb cap Ac cuf]
+15.8 +11.7 77 +16 +18 по сезону 1001.0 959.1
15 20.05 ЮВ 3 20 км в посл. час ливневой дождь 9/5 300 м
[Cb cap Ac cuf]
+14.4 +12.2 87 +13 +15 прохладно 1001.1 959.0
16 20.05 ЮВ 2 25 км 9/5 600 м
[Cu med, cong Ac cuf Ci fib]
+14.9 +11.9 82 +15 +16 тепло 1000.8 958.8
17 20.05 ЮВ 2 35 км 9/4 1200 м
[Cu med, cong Ac cuf Ci fib]
+14.8 +11.6 81 +14 +15 по сезону 1001.1 959.0
18 20.05 ЮВ 2 40 км {ливн. осадки, дождь} 8/1 500 м
[Sc diur, vesp Ac cuf Ci fib]
+14.9 +11.1 78 +15 +15 по сезону 1001.0 959.0 +15.8 17
19 20.05 ЮВ 3 45 км осадки на расстоянии 9/4 600 м
[Cb calv Ac cuf Ci fib]
+13.6 +11.3 86 +12 +12 тепло 1001.3 959.1
20 20.05 ЮВ 4 40 км 9/8 660 м
[Cu Sc Ac cuf]
+13.3 +10.8 85 +12 +12 по сезону 1001.8 959.5
21 20.05 ЮВ 4 40 км 9/1 1000 м
[Sc diur, vesp Ac As Ci fib]
+12.8 +10.2 84 +11 +11 по сезону 1001.7 959.3
22 20.05 ЮВ 3 35 км 8/0
[Ac As]
+11.8 +9.9 88 +10 +10 тепло 1001.8 959.3
23 20.05 ЮВ 3 30 км 3/0
[Ac As]
+11.6 +9.8 89 +10 +10 тепло 1002.0 959.4
00 21.05 Ю 3 30 км 4/0 2000 м
[Ac As Ci fib]
+10.5 +9.3 92 +8 +8 по сезону 1002.2 959.4
01 21.05 ЮВ 3 25 км 1/0
[Ac lent Ci fib]
+9.9 +8.9 93 +8 +8 по сезону 1002.6 959.7
02 21.05 ЮВ 2 12 км 1/0
[Ac lent Ci fib]
+9.8 +9.2 96 +8 +8 по сезону 1002.5 959.6
03 21.05 ЮВ 1 9000 м местами туман поземный 4/4 330 м
[St Ac lent Ci fib]
+8.7 +8.3 97 +8 +8 по сезону 1003.0 959.9
04 21.05 ЮВ 3 12 км 4/3 330 м
[St Ac lent Ci fib]
+8.8 +8.4 97 +6 +6 по сезону 1003.2 960.1
05 21.05 В 2 20 км 4/1 360 м
[St Ac lent Ci fib]
+10.9 +10.0 94 +9 +11 по сезону 1003.2 960.5
06 21.05 ЮВ 3 35 км 6/3 300 м
[Cu hum Ac lent Ci fib]
+12.0 +9.6 85 +10 +12 по сезону 1003.3 960.7 +7.4
07 21.05 В 1 45 км 8/6 480 м
[Cu hum Ac lent Ci fib]
+13.4 +9.7 78 +14 +16 тепло 1003.6 961.2
08 21.05 Ю 2 50 км 9/6 600 м
[Sc diur, vesp Ac lent Ci fib]
+14.2 +9.8 75 +14 +16 по сезону 1003.9 961.6
09 21.05 Ю 3 50 км 9/9 750 м
[Sc diur, vesp Ac lent Ci fib]
+15.2 +9.2 67 +15 +16 по сезону 1004.3 962.1
10 21.05 ЮВ 2 50 км 9/9 840 м
[Sc diur, vesp]
+15.9 +8.6 62 +16 +18 по сезону 1004.5 962.4
11 21.05 В 3 60 км 9/8 900 м
[Sc diur, vesp Ci fib]
+16.8 +9.7 63 +17 +19 по сезону 1004.7 962.8
12 21.05 С 2 60 км 9/6 1000 м
[Sc diur, vesp Ci sp]
+16.7 +10.1 65 +17 +22 по сезону 1005.0 963.0
13 21.05 СВ 3 70 км 8/4 1050 м
[Sc diur, vesp Ci sp]
+18.7 +9.2 54 +19 +25 тепло 1004.7 963.0
14 21.05 В 2 70 км 8/6 1050 м
[Sc diur, vesp Ci sp]
+18.8 +10.0 57 +20 +24 тепло 1005.0 963.3
15 21.05 ЮВ 2 70 км 8/4 1050 м
[Sc diur, vesp Ci sp]
+18.7 +10.0 57 +20 +24 тепло 1005.1 963.4
16 21.05 Ю 1 70 км 8/1 1050 м
[Sc diur, vesp Ci sp]
+19.0 +9.8 55 +21 +25 комфорт 1005.1 963.4
17 21.05 С 2 60 км 6/1 1200 м
[Sc diur, vesp Ac trans Ci fib]
+18.6 +10.7 60 +20 +21 тепло 1005.5 963.8
18 21.05 СЗ 1 60 км 6/1 1200 м
[Sc diur, vesp Ac cuf Ci ing]
+17.8 +10.2 61 +19 +19 тепло 1005.6 963.8 +20.1
19 21.05 З 4 50 км 8/3 1200 м
[Cb cap Ac cuf Ci ing]
+14.7 +12.2 85 +13 +13 тепло 1007.0 964.7
20 21.05 З 3 50 км слаб. ливневой дождь 9/9 420 м
[Cb cap Ac cuf Ci ing]
+14.3 +12.5 89 +13 +13 тепло 1008.0 965.6
21 21.05 З 3 10 км слаб. ливневой дождь 9/9 600 м
[Cb cap Ac cuf]
+13.1 +12.2 94 +12 +12 по сезону 1008.3 965.7
22 21.05 ЮЗ 4 25 км в посл. час ливневой дождь 9/1 1000 м
[Sc Ac As]
+13.3 +12.1 92 +12 +12 тепло 1008.1 965.5
23 21.05 З 3 30 км 9/9 570 м
[Sc]
+13.5 +12.2 92 +12 +12 тепло 1008.3 965.8
00 22.05 СЗ 3 25 км {ливн. осадки} 9/9 420 м
[Sc]
+13.7 +12.1 90 +12 +12 тепло 1008.5 966.0 4
01 22.05 СЗ 5 12 км в посл. час дождь 10/6 800 м
[Sc Ac As]
+13.5 +11.7 89 +11 +11 тепло 1008.7 966.1
02 22.05 СЗ 4 11 км слаб. дождь 10/8 330 м
[Sc Ac As]
+13.0 +11.6 91 +11 +11 тепло 1008.8 966.2
03 22.05 СЗ 5 12 км в посл. час дождь 10/3 500 м
[Sc Ac As]
+13.0 +11.1 88 +11 +11 по сезону 1009.2 966.5
04 22.05 З 4 20 км слаб. дождь 10/5 480 м
[Sc Ac As]
+13.2 +11.1 87 +11 +11 тепло 1009.4 966.8
05 22.05 СЗ 4 25 км в посл. час дождь 10/6 480 м
[Sc Ac As]
+13.3 +10.9 85 +12 +12 тепло 1010.0 967.3
06 22.05 З 5 30 км {дождь} 9/8 540 м
[Sc Ac As]
+13.5 +10.9 84 +12 +12 по сезону 1010.2 967.6 +12.8 4
07 22.05 СЗ 5 30 км 9/9 570 м
[Sc]
+14.0 +10.6 80 +12 +13 по сезону 1010.6 968.0
08 22.05 СЗ 4 35 км 10/9 540 м
[Sc]
+13.5 +10.5 82 +12 +12 по сезону 1011.1 968.4
09 22.05 СЗ 5
{11}
30 км 10/8 660 м
[Sc Ac As]
+13.4 +9.9 79 +11 +12 прохладно 1011.6 968.9
10 22.05 СЗ 6 30 км 10/9 630 м
[Sc]
+13.3 +9.6 78 +11 +11 холодно 1012.2 969.4
11 22.05 СЗ 8
{11}
25 км слаб. дождь 10/9 500 м
[Sc]
+12.8 +9.4 80 +10 +10 холодно 1013.3 970.4
12 22.05 СЗ 7
{11}
4000 м слаб. дождь 10/10 270 м
[Sc]
+11.6 +10.5 93 +8 +8 очень
холодно
1013.9 970.8 1
13 22.05 СЗ 5 9000 м слаб. дождь 10/10 450 м
[Sc]
+12.2 +10.4 89 +10 +10 прохладно 1013.9 970.9
14 22.05 СЗ 5 9000 м слаб. дождь 10/10 360 м
[Sc]
+12.1 +10.2 88 +10 +10 холодно 1014.0 971.0
15 22.05 СЗ 5 8000 м слаб. дождь 10/10 450 м
[Sc]
+12.2 +10.3 88 +10 +10 холодно 1014.2 971.2
16 22.05 СЗ 6 9000 м слаб. дождь 10/10 480 м
[Sc]
+12.3 +10.2 87 +10 +10 по сезону 1014.3 971.3
17 22.05 СЗ 4 6000 м слаб. дождь 10/10 480 м
[Sc]
+11.8 +10.4 91 +10 +10 прохладно 1014.9 971.8
18 22.05 СЗ 5 8000 м слаб. дождь 10/10 420 м
[Sc]
+11.5 +10.1 91 +9 +9 холодно 1015.5 972.3 +14.1 4
19 22.05 СЗ 6 7000 м слаб. дождь 10/10 240 м
[Sc]
+11.2 +9.8 91 +8 +8 по сезону 1016.1 972.9
20 22.05 СЗ 6 9000 м в посл. час дождь 10/10 150 м
[Sc]
+10.7 +9.5 92 +7 +7 прохладно 1017.1 973.7
21 22.05 СЗ 5 10 км {дождь} 10/10 270 м
[Sc]
+10.5 +8.8 89 +7 +7 прохладно 1017.3 973.9
22 22.05 СЗ 4 12 км слаб. дождь 10/10 1080 м
[Sc]
+10.2 +8.3 88 +7 +7 тепло 1017.5 974.0
23 22.05 З 6 12 км слаб. дождь 10/10 1000 м
[Sc]
+10.2 +8.1 87 +7 +7 по сезону 1017.6 974.1
00 23.05 З 4 15 км в посл. час дождь 10/10 900 м
[Sc]
+10.1 +7.7 85 +7 +7 по сезону 1017.7 974.2 0.5
01 23.05 СЗ 5 20 км 10/10 900 м
[Sc]
+10.1 +7.4 83 +7 +7 по сезону 1017.8 974.3
02 23.05 СЗ 5 20 км слаб. дождь 10/10 800 м
[Sc]
+9.9 +6.9 82 +7 +7 по сезону 1018.0 974.5
03 23.05 З 3 30 км в посл. час дождь 9/5 1500 м
[Sc Ac As]
+9.7 +6.6 81 +7 +7 прохладно 1018.1 974.5
05 23.05 З 3 35 км слаб. дождь 9/9 1500 м
[Sc]
+8.9 +7.0 88 +6 +6 прохладно 1018.6 974.9
06 23.05 З 3 45 км слаб. дождь 9/3 1500 м
[Sc Ac As]
+9.5 +6.6 82 +7 +8 прохладно 1019.1 975.4 +8.9 0.6
07 23.05 З 3 45 км слаб. дождь 9/1 1200 м
[Sc Ac As]
+10.1 +6.8 80 +8 +10 прохладно 1019.3 975.7
08 23.05 З 3 30 км в посл. час дождь 9/1 1380 м
[Sc Ac As]
+10.3 +7.4 82 +8 +11 холодно 1019.7 976.1
09 23.05 СЗ 5 40 км {дождь} 9/1 800 м
[Cu med, cong Ac As]
+11.7 +6.4 70 +9 +12 холодно 1019.4 976.1
10 23.05 СЗ 3 30 км 8/3 800 м
[Cu med, cong Ac As Ci fib]
+12.6 +6.6 67 +11 +17 тепло 1019.3 976.1

 

Местоположение метеостанции Прага (Чехия): широта 50.10 долгота 14.25 высота над уровнем моря 365 м.

В архиве по умолчанию представлена погода в Праге за последнюю неделю. Архивные данные за месяц целиком и за предыдущие месяцы, начиная с января 2011 года, Вы можете получить, выбрав интересующий диапазон дат из раскрывающегося списка и нажав кнопку "Ввод!".


*Определитесь, кто Вы:
робот инопланетянин человек

Внимание! Время в таблицах - всемирное. Для получения местного времени необходимо прибавить поправку, которая равна 1 ч.

Смотрите также архив погоды в соседних городах и на ближайших метеорологических станциях:

Погода в Праге-Либус (Чехия) (17 км)
Погода в Прага аэропорту (Чехия) (20 км)
Погода в Докшанах (Чехия) (42 км)
Погода в Милешовке (Чехия) (55 км)
Погода в Усти-над-Лабем (Чехия) (66 км)
Погода в Пльзень-Микулке (Чехия) (72 км)
Погода в Тушимице (Чехия) (72 км)
Погода в Коцеловице (Чехия) (76 км)
Погода в Циннвальд-Георгенфельде (Германия) (79 км)
Погода в Чаславе (Чехия) (83 км)

Пояснения к столбцам:

Ветер - указаны скорость ветра в м/с - средняя за 10 мин, порывы в срок и между сроками (в фигурных скобках) и направление, откуда дует ветер: С - северный, СВ - северо-восточный, В - восточный, ЮВ - юго-восточный, Ю - южный, ЮЗ - юго-западный, З - западный, СЗ - северо-западный.
Видимость - горизонтальная дальность видимости в метрах или километрах. При видимости от 1 до 10 км при отсутствии осадков обычно наблюдается дымка, при ухудшении видимости до 1 км и менее - туман. В сухую погоду видимость может ухудшаться дымом, пылью или мглою.
Явления - указаны атмосферные явления, наблюдавшиеся в срок или в последний час перед сроком; фигурными скобками обозначены явления, наблюдавшиеся между сроками (за 1-3 часа до срока); квадратными скобками обозначены град или гололедные отложения с указанием их диаметра в мм.
Облачность - указаны через наклонную черту общая и нижняя облачность в баллах и высота нижней границы облаков в метрах; квадратными скобками обозначены формы облаков: Ci - перистые, Cs - перисто-слоистые, Cc - перисто-кучевые, Ac - высококучевые, As - высокослоистые, Sc - слоисто-кучевые, Ns - слоисто-дождевые, Cu - кучевые, Cb - кучево-дождевые. Подробнее классификацию облаков см. в Атласе облаков (PDF).
T - Температура воздуха - температура, измеренная на высоте 2 м над землей.
Td - Температура точки росы - температура, при понижении до которой содержащийся в воздухе водяной пар достигнет насыщения.
f - Относительная влажность воздуха - влажноcть воздуха, измеренная на высоте 2 м над землей.
Te - Эффективная температура - температура, которую ощущает одетый по сезону человек в тени. Характеристика душности погоды. При расчете учитывается влияние влажности воздуха и скорости ветра на теплоощущения человека.
Tes - Эффективная температура на солнце - температура, которую ощущает человек, с поправкой на солнечный нагрев. Характеристика знойности погоды. Зависит от высоты солнца над горизонтом, облачности и скорости ветра. Ночью, в пасмурную погоду, а также при ветре 12 м/с и более поправка равна нулю.
P - Атмосферное давление - приведенное к уровню моря атмосферное давление.
Po - Атмосферное давление - измеренное на уровне метеостанции атмосферное давление.
Tmin - Минимальная температура - минимум температуры воздуха на высоте 2 м над землей.
Tmax - Максимальная температура - максимум температуры воздуха на высоте 2 м над землей.
R - Количество осадков - Количество выпавших осадков за период времени, мм. При наведении курсора мыши на число - период времени, за который выпало указанное количество осадков.
R24 - Количество осадков - Количество выпавших осадков за 24 часа, мм.
S - Снежный покров - Высота снежного покрова, см. При наведении курсора мыши на число - состояние снежного покрова и степень покрытия местности в баллах.